EW9776 Weather Reports


Display with metric or nautical units.
time (UTC)temp
F
wind
direction
speed
MPH
gust
MPH
rain 1hr
in
rain 24hr
in
rain mn
in
humidity
%
barometer
mb
20260505010038 78 261 6.0 13.0 0.00 0.00 0.00 36 1010.2
20260505004535 78 263 7.0 15.0 0.00 0.00 0.00 34 1010.1
20260505003032 79 255 7.0 18.0 0.00 0.00 0.00 33 1010.0
20260505001536 80 250 6.0 15.0 0.00 0.00 0.00 33 1009.9
20260505000111 81 262 6.0 15.0 0.00 0.00 0.00 33 1009.9
20260504230036 82 317 6.0 14.0 0.00 0.00 0.00 37 1010.0
20260504224537 82 9 5.0 14.0 0.00 0.00 0.00 39 1010.2
20260504223035 80 69 3.0 12.0 0.00 0.00 0.00 40 1010.4
20260504221536 80 46 4.0 8.0 0.00 0.00 0.00 41 1010.5
20260504220036 80 24 5.0 11.0 0.00 0.00 0.00 42 1010.6
20260504214536 79 35 5.0 10.0 0.00 0.00 0.00 43 1010.8
20260504213112 78 39 4.0 8.0 0.00 0.00 0.00 43 1011.0
20260504211537 78 39 6.0 11.0 0.00 0.00 0.00 43 1011.1
20260504210037 77 40 6.0 10.0 0.00 0.00 0.00 44 1011.1
20260504204535 77 34 7.0 12.0 0.00 0.00 0.00 44 1011.2
20260504203033 77 28 7.0 13.0 0.00 0.00 0.00 42 1011.4
20260504201610 77 41 5.0 10.0 0.00 0.00 0.00 43 1011.6
20260504200033 77 34 6.0 12.0 0.00 0.00 0.00 44 1011.7
20260504194608 77 35 7.0 12.0 0.00 0.00 0.00 45 1011.7
20260504193030 76 35 6.0 11.0 0.00 0.00 0.00 45 1011.7
20260504191531 76 30 6.0 13.0 0.00 0.00 0.00 45 1011.9
20260504190032 76 44 5.0 10.0 0.00 0.00 0.00 45 1011.9
20260504184536 74 37 4.0 11.0 0.00 0.00 0.00 47 1012.1
20260504183036 73 30 4.0 9.0 0.00 0.00 0.00 49 1012.2
20260504181535 73 33 5.0 11.0 0.00 0.00 0.00 50 1012.2
20260504173034 72 43 4.0 9.0 0.00 0.00 0.00 51 1012.2
20260504171610 71 47 3.0 7.0 0.00 0.00 0.00 52 1012.2
20260504150110 62 91 0.0 4.0 0.00 0.00 0.00 64 1012.4
20260504081650 62 206 1.0 6.0 0.00 0.00 0.00 51 1011.5
20260504044535 67 93 1.0 3.0 0.00 0.00 0.00 46 1010.8
20260504041536 68 191 3.0 7.0 0.00 0.00 0.00 45 1010.5
20260504040046 65 184 3.0 6.0 0.00 0.00 0.00 50 1010.3
20260504034533 66 207 2.0 4.0 0.00 0.00 0.00 48 1010.2
20260504031536 72 207 2.0 4.0 0.00 0.00 0.00 43 1009.9
20260504024532 80 224 0.0 3.0 0.00 0.00 0.00 32 1009.8
20260504023044 82 224 0.0 4.0 0.00 0.00 0.00 30 1009.8
20260504023037 84 252 0.0 3.0 0.00 0.00 0.00 28 1010.0
20260504020036 84 205 0.0 2.0 0.00 0.00 0.00 27 1010.1
20260504013035 87 39 2.0 5.0 0.00 0.00 0.00 25 1010.3